| time (UTC) | temp F | wind direction | speed knots | gust knots | rain 1hr in | rain 24hr in | rain mn in | humidity % | barometer mb |
| 20260905132815 | 87 | 336 | 0.0 | 0.0 | 0.05 | 0.05 | 0.05 | 60 | 1017.9 |
| 20260905132314 | 88 | 335 | 0.0 | 0.0 | 0.05 | 0.05 | 0.05 | 55 | 1017.9 |
| 20260905131814 | 88 | 336 | 0.0 | 0.0 | 0.05 | 0.05 | 0.05 | 53 | 1017.9 |
| 20260905130315 | 90 | 336 | 0.0 | 0.0 | 0.05 | 0.05 | 0.05 | 51 | 1018.0 |
| 20260905124315 | 87 | 336 | 0.0 | 0.0 | 0.05 | 0.05 | 0.05 | 58 | 1018.2 |
| 20260905123815 | 86 | 336 | 0.9 | 5.2 | 0.05 | 0.05 | 0.05 | 58 | 1018.2 |
| 20260905123315 | 86 | 336 | 1.7 | 5.2 | 0.05 | 0.05 | 0.05 | 56 | 1018.2 |
| 20260905122815 | 87 | 343 | 1.7 | 4.3 | 0.00 | 0.00 | 0.00 | 51 | 1018.4 |
| 20260905122315 | 86 | 13 | 1.7 | 4.3 | 0.00 | 0.00 | 0.00 | 53 | 1018.4 |
| 20260905121814 | 86 | 125 | 1.7 | 5.2 | 0.00 | 0.00 | 0.00 | 53 | 1018.4 |
| 20260905120815 | 84 | 150 | 1.7 | 5.2 | 0.00 | 0.00 | 0.00 | 55 | 1018.5 |
| 20260905120314 | 84 | 263 | 1.7 | 4.3 | 0.00 | 0.00 | 0.00 | 54 | 1018.5 |
| 20260905115815 | 84 | 247 | 2.6 | 4.3 | 0.00 | 0.00 | 0.00 | 54 | 1018.7 |
| 20260905115315 | 84 | 267 | 2.6 | 4.3 | 0.00 | 0.00 | 0.00 | 55 | 1018.7 |
| 20260905114815 | 83 | 332 | 2.6 | 7.0 | 0.00 | 0.00 | 0.00 | 55 | 1018.7 |
| 20260905114315 | 83 | 283 | 1.7 | 7.0 | 0.00 | 0.00 | 0.00 | 54 | 1018.7 |
| 20260905113815 | 83 | 239 | 1.7 | 6.1 | 0.00 | 0.00 | 0.00 | 55 | 1018.7 |
| 20260905113315 | 82 | 217 | 1.7 | 4.3 | 0.00 | 0.00 | 0.00 | 56 | 1018.7 |
| 20260905112815 | 82 | 357 | 1.7 | 4.3 | 0.00 | 0.00 | 0.00 | 55 | 1018.8 |
| 20260905112315 | 82 | 203 | 1.7 | 4.3 | 0.00 | 0.00 | 0.00 | 56 | 1018.8 |
| 20260905111814 | 81 | 269 | 1.7 | 2.6 | 0.00 | 0.00 | 0.00 | 57 | 1018.8 |
| 20260905111314 | 81 | 245 | 1.7 | 2.6 | 0.00 | 0.00 | 0.00 | 57 | 1018.8 |
| 20260905110815 | 81 | 207 | 1.7 | 2.6 | 0.00 | 0.00 | 0.00 | 56 | 1018.8 |
| 20260905110315 | 81 | 207 | 1.7 | 4.3 | 0.00 | 0.00 | 0.00 | 57 | 1018.8 |
| 20260905105315 | 81 | 193 | 1.7 | 2.6 | 0.00 | 0.00 | 0.00 | 58 | 1019.1 |
| 20260905104315 | 80 | 194 | 1.7 | 2.6 | 0.00 | 0.00 | 0.00 | 57 | 1019.1 |
| 20260905103815 | 80 | 193 | 1.7 | 2.6 | 0.00 | 0.00 | 0.00 | 56 | 1019.1 |
| 20260905103315 | 80 | 193 | 1.7 | 2.6 | 0.00 | 0.00 | 0.00 | 57 | 1019.1 |
| 20260905102814 | 79 | 206 | 1.7 | 2.6 | 0.00 | 0.00 | 0.00 | 61 | 1019.1 |
| 20260905102314 | 79 | 206 | 1.7 | 2.6 | 0.00 | 0.00 | 0.00 | 61 | 1019.1 |
| 20260905101815 | 79 | 208 | 1.7 | 2.6 | 0.00 | 0.00 | 0.00 | 62 | 1019.1 |
| 20260905101315 | 79 | 208 | 1.7 | 2.6 | 0.00 | 0.00 | 0.00 | 62 | 1019.3 |
| 20260905100815 | 78 | 207 | 1.7 | 4.3 | 0.00 | 0.00 | 0.00 | 64 | 1019.3 |